contact:dominique.lefevre@mio.osupytheas.fr, maurice.libes@osupytheas.fr, didier.mallarino@osupytheas.fr
Project:EMSO http://www.emso-fr.org/EMSO-France
Depth: 2436.0 m
Title:EMSO Ligure Ouest : Data MII capteur AQUADOPP
Date,Latitude,Longitude,X_East,Y_North,Z_Up,Amplitude_X,Amplitude_Y,Amplitude_Z,Batterie,SoundSpeed,Heading,Pitch,Roll,Pressure,TIS,Speed,Direction
, degrees North, degrees East, m.s-1, m.s-1,m.s-1, 1, 1, 1, Volt, m.s-1, degree, degree, degree, dbar, degree_C, m.s-1, degree
2023-03-13T00:04:03,42.805,6.029,-0.016,0.034,-0.009,105.0,104.0,103.0,13.3,1505.2,322.2,-0.8,1.8,2471.426,13.29,0.037,334.8
2023-03-13T00:07:03,42.805,6.029,-0.017,0.041,-0.007,103.0,104.0,103.0,13.3,1505.2,339.9,-0.8,1.8,2471.371,13.29,0.044,337.5
2023-03-13T00:10:03,42.805,6.029,-0.029,0.037,-0.006,103.0,103.0,103.0,13.4,1505.2,328.1,-0.8,1.8,2471.411,13.29,0.047,321.9
2023-03-13T00:13:03,42.805,6.029,-0.026,0.025,0.011,105.0,105.0,103.0,13.4,1505.2,315.5,-0.8,1.9,2471.409,13.29,0.036,313.9
2023-03-13T00:16:03,42.805,6.029,-0.006,0.019,-0.006,104.0,104.0,103.0,13.4,1505.2,320.7,-0.7,1.8,2471.429,13.29,0.019,342.5
2023-03-13T00:19:03,42.805,6.029,-0.025,0.007,-0.025,103.0,103.0,102.0,13.4,1505.2,321.2,-0.8,1.8,2471.391,13.29,0.025,285.6
2023-03-13T00:22:03,42.805,6.029,-0.01,0.008,-0.016,105.0,104.0,104.0,13.3,1505.2,330.3,-0.8,1.8,2471.403,13.29,0.012,308.7
2023-03-13T00:25:03,42.805,6.029,-0.001,0.032,-0.003,103.0,102.0,104.0,13.4,1505.2,336.3,-0.8,1.8,2471.362,13.29,0.032,358.2
2023-03-13T00:28:03,42.805,6.029,-0.032,0.029,-0.047,104.0,104.0,102.0,13.3,1505.2,320.4,-0.7,1.8,2471.417,13.29,0.043,312.2
2023-03-13T00:31:03,42.805,6.029,-0.008,0.036,-0.015,104.0,105.0,102.0,13.3,1505.2,333.0,-0.7,1.8,2471.381,13.29,0.036,347.5
2023-03-13T00:34:03,42.805,6.029,-0.005,0.016,-0.007,103.0,104.0,103.0,13.4,1505.2,332.0,-0.8,1.8,2471.378,13.29,0.016,342.6
2023-03-13T00:37:03,42.805,6.029,-0.024,0.032,0.009,105.0,106.0,102.0,13.3,1505.2,318.8,-0.8,1.8,2471.393,13.29,0.04,323.1
2023-03-13T00:40:03,42.805,6.029,-0.036,0.028,-0.001,106.0,104.0,103.0,13.3,1505.2,324.1,-0.7,1.8,2471.364,13.29,0.045,307.9
2023-03-13T00:43:03,42.805,6.029,-0.029,0.011,-0.011,105.0,103.0,103.0,13.4,1505.2,319.4,-0.8,1.8,2471.384,13.29,0.031,290.8
2023-03-13T00:46:03,42.805,6.029,-0.019,0.051,0.0,104.0,104.0,103.0,13.4,1505.2,335.6,-0.8,1.8,2471.348,13.29,0.054,339.6
2023-03-13T00:49:03,42.805,6.029,-0.018,0.033,0.006,104.0,104.0,102.0,13.4,1505.2,326.3,-0.8,1.8,2471.352,13.29,0.037,331.4
2023-03-13T00:52:03,42.805,6.029,-0.003,0.028,-0.022,104.0,104.0,103.0,13.4,1505.2,341.2,-0.8,1.8,2471.372,13.29,0.028,353.9
2023-03-13T00:55:03,42.805,6.029,-0.009,0.017,-0.016,104.0,105.0,103.0,13.3,1505.2,330.3,-0.8,1.8,2471.392,13.29,0.019,332.1
2023-03-13T00:58:03,42.805,6.029,-0.036,0.014,-0.036,105.0,102.0,104.0,13.4,1505.2,322.0,-0.8,1.8,2471.36,13.29,0.038,291.2
2023-03-13T01:04:03,42.805,6.029,-0.013,0.01,-0.053,106.0,105.0,104.0,13.3,1505.2,316.2,-0.7,1.8,2471.406,13.29,0.016,307.6
2023-03-13T01:07:03,42.805,6.029,-0.024,0.021,-0.023,102.0,104.0,103.0,13.4,1505.2,326.0,-0.7,1.8,2471.373,13.29,0.031,311.2
2023-03-13T01:10:03,42.805,6.029,-0.014,0.041,-0.002,104.0,104.0,104.0,13.4,1505.2,323.6,-0.8,1.9,2471.394,13.29,0.043,341.1
2023-03-13T01:13:03,42.805,6.029,-0.015,0.044,0.009,107.0,106.0,102.0,13.4,1505.2,337.3,-0.8,1.8,2471.409,13.29,0.046,341.2
2023-03-13T01:16:03,42.805,6.029,-0.039,0.017,-0.016,104.0,104.0,103.0,13.4,1505.2,326.0,-0.8,1.8,2471.385,13.29,0.042,293.5
2023-03-13T01:19:03,42.805,6.029,-0.023,0.038,0.009,104.0,103.0,103.0,13.4,1505.2,340.2,-0.8,1.8,2471.357,13.29,0.044,328.8
2023-03-13T01:22:03,42.805,6.029,-0.005,0.023,0.004,105.0,105.0,103.0,13.3,1505.2,328.8,-0.8,1.8,2471.389,13.29,0.023,347.7
2023-03-13T01:25:03,42.805,6.029,-0.014,0.006,-0.035,105.0,105.0,102.0,13.4,1505.2,334.2,-0.7,1.8,2471.322,13.29,0.015,293.2
2023-03-13T01:28:03,42.805,6.029,-0.033,0.024,-0.002,103.0,104.0,103.0,13.4,1505.2,327.7,-0.7,1.8,2471.33,13.29,0.04,306.0
2023-03-13T01:31:03,42.805,6.029,-0.036,0.024,0.015,104.0,105.0,103.0,13.4,1505.2,327.2,-0.8,1.9,2471.37,13.29,0.043,303.7
2023-03-13T01:34:03,42.805,6.029,-0.037,0.024,-0.005,105.0,105.0,102.0,13.3,1505.2,327.6,-0.8,1.8,2471.338,13.29,0.044,303.0
2023-03-13T01:37:03,42.805,6.029,-0.029,0.046,-0.007,103.0,103.0,103.0,13.4,1505.2,334.3,-0.8,1.8,2471.357,13.29,0.054,327.8
2023-03-13T01:40:03,42.805,6.029,-0.014,0.005,-0.02,104.0,103.0,103.0,13.4,1505.2,332.9,-0.7,1.8,2471.327,13.29,0.014,289.6
2023-03-13T01:43:03,42.805,6.029,-0.023,0.032,-0.023,105.0,105.0,103.0,13.3,1505.2,330.6,-0.8,1.8,2471.318,13.29,0.039,324.3
2023-03-13T01:46:03,42.805,6.029,-0.026,0.027,-0.008,106.0,104.0,102.0,13.4,1505.2,321.8,-0.8,1.8,2471.337,13.29,0.037,316.1
2023-03-13T01:49:03,42.805,6.029,-0.032,0.019,-0.022,104.0,104.0,103.0,13.3,1505.2,322.7,-0.8,1.8,2471.334,13.29,0.037,300.7
2023-03-13T01:52:03,42.805,6.029,-0.024,0.025,-0.012,106.0,104.0,102.0,13.3,1505.2,322.9,-0.8,1.8,2471.327,13.29,0.034,316.2
2023-03-13T01:55:03,42.805,6.029,-0.024,0.014,-0.032,103.0,104.0,104.0,13.4,1505.2,324.2,-0.8,1.8,2471.314,13.29,0.027,300.3
2023-03-13T01:58:03,42.805,6.029,-0.029,0.034,-0.014,105.0,104.0,101.0,13.4,1505.2,331.5,-0.8,1.8,2471.312,13.29,0.044,319.5
2023-03-13T02:04:03,42.805,6.029,0.002,0.028,-0.003,104.0,105.0,103.0,13.4,1505.2,337.3,-0.8,1.8,2471.376,13.29,0.028,4.1
2023-03-13T02:07:03,42.805,6.029,-0.021,0.036,-0.013,103.0,104.0,103.0,13.4,1505.2,327.4,-0.7,1.8,2471.347,13.29,0.041,329.7
2023-03-13T02:10:03,42.805,6.029,-0.017,0.018,-0.003,104.0,104.0,105.0,13.4,1505.2,324.4,-0.7,1.8,2471.363,13.29,0.024,316.6
2023-03-13T02:13:03,42.805,6.029,-0.025,0.006,-0.033,104.0,105.0,102.0,13.4,1505.2,329.0,-0.8,1.8,2471.35,13.29,0.025,283.5
2023-03-13T02:16:03,42.805,6.029,-0.032,0.02,-0.022,106.0,102.0,104.0,13.3,1505.2,322.4,-0.8,1.8,2471.325,13.29,0.037,302.0
2023-03-13T02:19:03,42.805,6.029,-0.03,0.044,0.003,105.0,106.0,102.0,13.4,1505.2,328.6,-0.8,1.8,2471.332,13.29,0.053,325.7
2023-03-13T02:22:03,42.805,6.029,-0.025,0.02,-0.003,105.0,104.0,103.0,13.4,1505.2,335.2,-0.8,1.8,2471.325,13.29,0.032,308.7
2023-03-13T02:25:03,42.805,6.029,-0.028,0.024,-0.028,104.0,106.0,103.0,13.4,1505.2,322.4,-0.8,1.8,2471.349,13.29,0.036,310.6
2023-03-13T02:28:03,42.805,6.029,-0.01,0.03,0.041,106.0,104.0,104.0,13.4,1505.2,339.6,-0.8,1.8,2471.292,13.29,0.031,341.6
2023-03-13T02:31:03,42.805,6.029,-0.011,0.017,0.003,105.0,104.0,103.0,13.4,1505.2,325.7,-0.8,1.8,2471.334,13.29,0.02,327.1
2023-03-13T02:34:03,42.805,6.029,-0.034,0.01,-0.026,104.0,103.0,103.0,13.4,1505.2,324.6,-0.7,1.9,2471.315,13.29,0.035,286.4
2023-03-13T02:37:03,42.805,6.029,-0.019,0.024,0.0,104.0,105.0,103.0,13.3,1505.2,323.1,-0.7,1.8,2471.307,13.29,0.03,321.6
2023-03-13T02:40:03,42.805,6.029,-0.03,0.031,-0.003,105.0,104.0,102.0,13.4,1505.2,323.4,-0.8,1.8,2471.303,13.29,0.043,315.9
2023-03-13T02:43:03,42.805,6.029,-0.017,0.042,-0.003,104.0,103.0,103.0,13.3,1505.2,338.3,-0.7,1.9,2471.319,13.29,0.045,338.0
2023-03-13T02:46:03,42.805,6.029,-0.018,0.026,-0.02,103.0,105.0,104.0,13.4,1505.2,319.8,-0.8,1.8,2471.341,13.29,0.031,325.3
2023-03-13T02:49:03,42.805,6.029,-0.017,0.037,0.02,104.0,104.0,103.0,13.4,1505.2,334.6,-0.8,1.8,2471.316,13.29,0.04,335.3
2023-03-13T02:52:03,42.805,6.029,-0.031,0.036,-0.02,105.0,104.0,103.0,13.3,1505.2,326.5,-0.8,1.8,2471.308,13.29,0.047,319.3
2023-03-13T02:55:03,42.805,6.029,-0.037,0.023,-0.029,105.0,105.0,103.0,13.3,1505.2,327.0,-0.7,1.8,2471.277,13.29,0.043,301.9
2023-03-13T02:58:03,42.805,6.029,-0.016,0.026,-0.016,104.0,104.0,103.0,13.4,1505.2,333.4,-0.8,1.8,2471.289,13.29,0.03,328.4
2023-03-13T03:04:03,42.805,6.029,-0.027,0.041,-0.01,104.0,105.0,103.0,13.3,1505.2,323.4,-0.7,1.8,2471.363,13.28,0.049,326.6
2023-03-13T03:07:03,42.805,6.029,-0.018,0.031,-0.005,106.0,105.0,105.0,13.4,1505.2,325.5,-0.8,1.8,2471.344,13.29,0.035,329.9
2023-03-13T03:10:03,42.805,6.029,-0.013,0.023,-0.021,108.0,106.0,103.0,13.4,1505.2,335.3,-0.8,1.8,2471.36,13.29,0.026,330.5
2023-03-13T03:13:03,42.805,6.029,-0.013,0.02,0.001,107.0,106.0,103.0,13.4,1505.2,336.4,-0.8,1.8,2471.324,13.29,0.023,327.0
2023-03-13T03:16:03,42.805,6.029,-0.029,0.023,-0.001,105.0,106.0,104.0,13.3,1505.2,326.7,-0.8,1.8,2471.328,13.29,0.037,308.4
2023-03-13T03:19:03,42.805,6.029,-0.011,0.014,-0.039,105.0,105.0,103.0,13.4,1505.2,321.7,-0.8,1.8,2471.334,13.29,0.017,321.8
2023-03-13T03:22:03,42.805,6.029,-0.032,0.027,0.02,105.0,105.0,103.0,13.4,1505.2,321.6,-0.7,1.8,2471.311,13.29,0.041,310.2
2023-03-13T03:25:03,42.805,6.029,-0.011,0.042,-0.011,105.0,106.0,103.0,13.4,1505.2,328.5,-0.8,1.8,2471.319,13.29,0.043,345.3
2023-03-13T03:28:03,42.805,6.029,-0.026,0.031,-0.017,105.0,106.0,103.0,13.4,1505.2,325.0,-0.8,1.8,2471.277,13.29,0.04,320.0
2023-03-13T03:31:03,42.805,6.029,-0.017,0.059,0.01,104.0,105.0,103.0,13.4,1505.2,338.5,-0.8,1.8,2471.296,13.29,0.061,343.9
2023-03-13T03:34:03,42.805,6.029,-0.033,0.046,-0.007,104.0,105.0,102.0,13.4,1505.2,324.4,-0.8,1.8,2471.33,13.29,0.056,324.3
2023-03-13T03:37:03,42.805,6.029,0.007,0.04,0.001,107.0,104.0,104.0,13.4,1505.2,329.5,-0.8,1.8,2471.285,13.29,0.04,9.9
2023-03-13T03:40:03,42.805,6.029,-0.017,0.039,-0.015,106.0,107.0,103.0,13.4,1505.2,341.2,-0.7,1.8,2471.321,13.29,0.042,336.5
2023-03-13T03:43:03,42.805,6.029,-0.018,0.025,-0.013,103.0,105.0,103.0,13.4,1505.2,323.4,-0.7,1.8,2471.286,13.29,0.03,324.2
2023-03-13T03:46:03,42.805,6.029,-0.012,0.032,-0.017,104.0,105.0,103.0,13.3,1505.2,334.7,-0.7,1.8,2471.284,13.29,0.034,339.4
2023-03-13T03:49:03,42.805,6.029,-0.026,0.048,0.0,105.0,104.0,102.0,13.4,1505.2,325.7,-0.7,1.8,2471.286,13.29,0.054,331.6
2023-03-13T03:52:03,42.805,6.029,-0.003,0.019,-0.016,105.0,105.0,103.0,13.4,1505.2,341.5,-0.8,1.8,2471.266,13.29,0.019,351.0
2023-03-13T03:55:03,42.805,6.029,-0.026,0.046,-0.013,104.0,104.0,103.0,13.4,1505.2,321.7,-0.7,1.8,2471.317,13.29,0.052,330.5
2023-03-13T03:58:03,42.805,6.029,-0.015,0.013,-0.01,105.0,106.0,103.0,13.4,1505.2,320.6,-0.8,1.8,2471.326,13.29,0.019,310.9
2023-03-13T04:04:03,42.805,6.029,-0.018,0.046,-0.007,106.0,104.0,103.0,13.4,1505.2,336.4,-0.8,1.8,2471.358,13.28,0.049,338.6
2023-03-13T04:07:03,42.805,6.029,-0.06,0.04,0.006,105.0,105.0,103.0,13.4,1505.2,322.7,-0.7,1.8,2471.338,13.29,0.072,303.7
2023-03-13T04:10:03,42.805,6.029,-0.008,0.047,0.039,105.0,105.0,102.0,13.4,1505.2,324.6,-0.8,1.8,2471.333,13.29,0.047,350.3
2023-03-13T04:13:03,42.805,6.029,-0.017,0.03,-0.012,105.0,106.0,103.0,13.3,1505.2,323.4,-0.8,1.8,2471.313,13.29,0.034,330.5
2023-03-13T04:16:03,42.805,6.029,-0.021,0.031,-0.017,105.0,105.0,103.0,13.4,1505.2,333.9,-0.8,1.9,2471.282,13.29,0.037,325.9
2023-03-13T04:19:03,42.805,6.029,-0.002,0.036,0.006,104.0,104.0,102.0,13.4,1505.2,332.6,-0.7,1.8,2471.325,13.29,0.036,356.8
2023-03-13T04:22:03,42.805,6.029,-0.016,0.03,0.011,104.0,104.0,103.0,13.3,1505.2,334.3,-0.8,1.8,2471.317,13.29,0.034,331.9
2023-03-13T04:25:03,42.805,6.029,-0.018,0.037,0.003,105.0,104.0,102.0,13.3,1505.2,327.0,-0.8,1.8,2471.278,13.29,0.041,334.1
2023-03-13T04:28:03,42.805,6.029,-0.008,0.018,0.0,105.0,105.0,102.0,13.4,1505.2,327.9,-0.8,1.8,2471.278,13.29,0.019,336.0
2023-03-13T04:31:03,42.805,6.029,-0.015,0.046,0.009,103.0,105.0,102.0,13.4,1505.2,322.7,-0.8,1.8,2471.306,13.29,0.048,341.9
2023-03-13T04:34:03,42.805,6.029,-0.017,0.036,-0.038,104.0,104.0,103.0,13.4,1505.2,333.8,-0.8,1.8,2471.321,13.29,0.039,334.7
2023-03-13T04:37:03,42.805,6.029,-0.026,0.052,-0.01,105.0,103.0,102.0,13.4,1505.2,332.4,-0.7,1.8,2471.241,13.29,0.058,333.4
2023-03-13T04:40:03,42.805,6.029,-0.029,0.036,-0.014,106.0,103.0,103.0,13.4,1505.2,323.9,-0.7,1.8,2471.312,13.29,0.046,321.1
2023-03-13T04:43:03,42.805,6.029,-0.03,0.029,-0.019,104.0,104.0,101.0,13.3,1505.2,324.2,-0.8,1.8,2471.283,13.29,0.041,314.0
2023-03-13T04:46:03,42.805,6.029,-0.05,0.03,-0.007,104.0,105.0,102.0,13.3,1505.2,320.0,-0.8,1.8,2471.283,13.29,0.058,301.0
2023-03-13T04:49:03,42.805,6.029,-0.009,0.048,-0.008,106.0,104.0,102.0,13.3,1505.2,328.5,-0.8,1.8,2471.282,13.29,0.048,349.4
2023-03-13T04:52:03,42.805,6.029,-0.008,0.042,-0.001,106.0,105.0,103.0,13.4,1505.2,324.6,-0.7,1.8,2471.279,13.29,0.042,349.2
2023-03-13T04:55:03,42.805,6.029,-0.016,0.033,-0.008,106.0,104.0,102.0,13.4,1505.2,332.5,-0.8,1.8,2471.323,13.29,0.036,334.1
2023-03-13T04:58:03,42.805,6.029,-0.016,0.032,-0.006,103.0,106.0,103.0,13.4,1505.2,318.2,-0.8,1.8,2471.327,13.29,0.035,333.4
2023-03-13T05:04:03,42.805,6.029,-0.029,0.046,-0.006,103.0,106.0,102.0,13.4,1505.2,320.5,-0.8,1.9,2471.301,13.28,0.054,327.8
2023-03-13T05:07:03,42.805,6.029,-0.001,0.021,-0.016,104.0,104.0,103.0,13.4,1505.2,320.9,-0.7,1.9,2471.328,13.28,0.021,357.3
2023-03-13T05:10:03,42.805,6.029,-0.019,0.025,-0.027,104.0,104.0,103.0,13.4,1505.2,318.2,-0.8,1.8,2471.329,13.29,0.031,322.8
2023-03-13T05:13:03,42.805,6.029,-0.026,0.043,-0.002,104.0,104.0,102.0,13.3,1505.2,324.3,-0.8,1.8,2471.353,13.29,0.05,328.8
2023-03-13T05:16:03,42.805,6.029,-0.019,0.05,-0.018,104.0,105.0,102.0,13.4,1505.2,330.0,-0.8,1.8,2471.318,13.29,0.053,339.2
2023-03-13T05:19:03,42.805,6.029,-0.018,0.032,-0.031,104.0,104.0,102.0,13.4,1505.2,321.0,-0.8,1.8,2471.321,13.29,0.036,330.6
2023-03-13T05:22:03,42.805,6.029,-0.012,0.042,-0.022,104.0,104.0,102.0,13.4,1505.2,323.9,-0.8,1.8,2471.326,13.29,0.043,344.1
2023-03-13T05:25:03,42.805,6.029,-0.005,0.04,-0.023,105.0,105.0,103.0,13.3,1505.2,340.2,-0.8,1.8,2471.326,13.29,0.04,352.9
2023-03-13T05:28:03,42.805,6.029,-0.035,0.031,-0.003,106.0,103.0,103.0,13.4,1505.2,319.8,-0.8,1.8,2471.316,13.29,0.046,311.5
2023-03-13T05:31:03,42.805,6.029,-0.028,0.055,0.011,104.0,104.0,102.0,13.4,1505.2,316.7,-0.8,1.8,2471.29,13.29,0.061,333.0
2023-03-13T05:34:03,42.805,6.029,0.011,0.044,-0.007,104.0,104.0,103.0,13.4,1505.2,333.8,-0.8,1.8,2471.293,13.29,0.045,14.0
2023-03-13T05:37:03,42.805,6.029,-0.039,0.052,-0.036,104.0,104.0,103.0,13.4,1505.2,322.9,-0.7,1.8,2471.306,13.29,0.064,323.1
2023-03-13T05:40:03,42.805,6.029,-0.021,0.033,-0.016,103.0,104.0,101.0,13.3,1505.2,326.0,-0.8,1.8,2471.288,13.29,0.039,327.5
2023-03-13T05:43:03,42.805,6.029,-0.026,0.056,-0.011,103.0,105.0,102.0,13.4,1505.2,325.6,-0.7,1.8,2471.283,13.29,0.061,335.1
2023-03-13T05:46:03,42.805,6.029,-0.028,0.029,-0.071,103.0,104.0,103.0,13.4,1505.2,338.2,-0.7,1.8,2471.299,13.29,0.04,316.0
2023-03-13T05:49:03,42.805,6.029,-0.001,0.042,-0.01,104.0,106.0,102.0,13.4,1505.2,342.4,-0.8,1.8,2471.321,13.29,0.042,358.6
2023-03-13T05:52:03,42.805,6.029,-0.016,0.038,0.003,104.0,105.0,102.0,13.4,1505.2,331.2,-0.8,1.8,2471.279,13.29,0.041,337.2
2023-03-13T05:55:03,42.805,6.029,0.002,0.043,0.001,103.0,104.0,102.0,13.4,1505.2,335.2,-0.8,1.8,2471.323,13.29,0.043,2.7
2023-03-13T05:58:03,42.805,6.029,-0.009,0.041,-0.022,106.0,104.0,104.0,13.3,1505.2,323.8,-0.8,1.8,2471.327,13.29,0.041,347.6
2023-03-13T06:04:03,42.805,6.029,-0.013,0.046,-0.002,104.0,106.0,102.0,13.4,1505.2,322.1,-0.8,1.8,2471.335,13.28,0.047,344.2
2023-03-13T06:07:03,42.805,6.029,-0.013,0.038,-0.012,104.0,105.0,102.0,13.3,1505.2,318.1,-0.7,1.8,2471.339,13.29,0.04,341.1
2023-03-13T06:10:03,42.805,6.029,-0.025,0.05,0.025,104.0,106.0,103.0,13.3,1505.2,333.4,-0.8,1.8,2471.313,13.29,0.055,333.4
2023-03-13T06:13:03,42.805,6.029,-0.02,0.052,0.011,104.0,104.0,103.0,13.4,1505.2,322.7,-0.7,1.8,2471.323,13.29,0.055,339.0
2023-03-13T06:16:03,42.805,6.029,0.016,0.037,-0.008,105.0,105.0,102.0,13.3,1505.2,322.3,-0.8,1.8,2471.305,13.29,0.04,23.4
2023-03-13T06:19:03,42.805,6.029,0.001,0.031,-0.009,105.0,104.0,103.0,13.4,1505.2,334.2,-0.7,1.8,2471.336,13.29,0.031,1.8
2023-03-13T06:22:03,42.805,6.029,-0.013,0.031,-0.05,104.0,104.0,102.0,13.4,1505.2,324.4,-0.7,1.8,2471.308,13.29,0.033,337.3
2023-03-13T06:25:03,42.805,6.029,-0.018,0.046,-0.016,104.0,105.0,103.0,13.4,1505.2,325.3,-0.8,1.8,2471.328,13.29,0.049,338.6
2023-03-13T06:28:03,42.805,6.029,0.016,0.024,-0.011,104.0,106.0,102.0,13.4,1505.2,342.4,-0.8,1.8,2471.311,13.29,0.028,33.7
2023-03-13T06:31:03,42.805,6.029,0.001,0.038,-0.035,103.0,105.0,103.0,13.3,1505.2,319.4,-0.8,1.8,2471.323,13.29,0.038,1.5
2023-03-13T06:34:03,42.805,6.029,0.01,0.043,0.004,104.0,106.0,103.0,13.4,1505.2,339.5,-0.8,1.8,2471.318,13.29,0.044,13.1
2023-03-13T06:37:03,42.805,6.029,0.009,0.05,0.024,104.0,105.0,102.0,13.4,1505.2,316.1,-0.7,1.8,2471.347,13.29,0.05,10.2
2023-03-13T06:40:03,42.805,6.029,-0.001,0.07,0.008,103.0,105.0,103.0,13.4,1505.2,335.8,-0.8,1.8,2471.316,13.29,0.07,359.2
2023-03-13T06:43:03,42.805,6.029,-0.03,0.056,-0.014,103.0,105.0,102.0,13.4,1505.2,318.4,-0.8,1.8,2471.318,13.29,0.063,331.8
2023-03-13T06:46:03,42.805,6.029,-0.023,0.037,-0.034,104.0,106.0,105.0,13.4,1505.2,318.4,-0.8,1.8,2471.318,13.29,0.043,328.1
2023-03-13T06:49:03,42.805,6.029,0.0,0.051,-0.009,104.0,106.0,101.0,13.3,1505.2,327.6,-0.7,1.8,2471.313,13.29,0.051,0.0
2023-03-13T06:52:03,42.805,6.029,-0.014,0.046,0.011,103.0,106.0,103.0,13.4,1505.2,317.3,-0.7,1.8,2471.292,13.29,0.048,343.1
2023-03-13T06:55:03,42.805,6.029,-0.021,0.064,0.017,104.0,107.0,103.0,13.3,1505.2,318.8,-0.8,1.8,2471.319,13.29,0.067,341.8
2023-03-13T06:58:03,42.805,6.029,-0.015,0.05,-0.01,105.0,106.0,101.0,13.4,1505.2,332.5,-0.8,1.8,2471.331,13.29,0.052,343.3
2023-03-13T07:04:03,42.805,6.029,0.005,0.058,0.021,105.0,103.0,102.0,13.4,1505.2,334.4,-0.8,1.8,2471.343,13.28,0.058,4.9
2023-03-13T07:07:03,42.805,6.029,0.009,0.042,-0.016,104.0,104.0,102.0,13.4,1505.2,335.4,-0.8,1.8,2471.349,13.28,0.042,12.1
2023-03-13T07:10:03,42.805,6.029,-0.038,0.068,-0.001,104.0,103.0,103.0,13.3,1505.2,318.8,-0.8,1.8,2471.348,13.29,0.077,330.8
2023-03-13T07:13:03,42.805,6.029,-0.013,0.05,0.023,104.0,106.0,103.0,13.4,1505.2,331.2,-0.8,1.8,2471.376,13.29,0.051,345.4
2023-03-13T07:16:03,42.805,6.029,-0.005,0.054,-0.003,104.0,106.0,103.0,13.4,1505.2,323.3,-0.8,1.8,2471.331,13.29,0.054,354.7
2023-03-13T07:19:03,42.805,6.029,0.008,0.054,0.0,104.0,104.0,102.0,13.4,1505.2,323.2,-0.8,1.8,2471.336,13.29,0.054,8.4
2023-03-13T07:22:03,42.805,6.029,-0.023,0.046,-0.004,104.0,104.0,103.0,13.3,1505.2,320.1,-0.8,1.8,2471.352,13.29,0.051,333.4
2023-03-13T07:25:03,42.805,6.029,-0.012,0.05,-0.008,104.0,104.0,102.0,13.4,1505.2,332.5,-0.8,1.8,2471.331,13.29,0.051,346.5
2023-03-13T07:28:03,42.805,6.029,-0.015,0.035,0.011,104.0,105.0,104.0,13.4,1505.2,322.5,-0.8,1.8,2471.371,13.29,0.038,336.8
2023-03-13T07:31:03,42.805,6.029,-0.014,0.046,0.007,105.0,104.0,103.0,13.4,1505.2,326.3,-0.8,1.8,2471.343,13.29,0.048,343.1
2023-03-13T07:34:03,42.805,6.029,0.021,0.035,0.014,105.0,104.0,103.0,13.4,1505.2,330.0,-0.8,1.8,2471.325,13.29,0.04,31.0
2023-03-13T07:37:03,42.805,6.029,0.004,0.042,-0.002,105.0,104.0,102.0,13.4,1505.2,335.1,-0.8,1.8,2471.31,13.29,0.042,5.4
2023-03-13T07:40:03,42.805,6.029,-0.013,0.056,-0.004,105.0,105.0,103.0,13.4,1505.2,315.0,-0.7,1.8,2471.323,13.29,0.057,346.9
2023-03-13T07:43:03,42.805,6.029,-0.014,0.039,-0.012,104.0,104.0,102.0,13.4,1505.2,317.3,-0.8,1.8,2471.326,13.29,0.041,340.3
2023-03-13T07:46:03,42.805,6.029,0.003,0.044,0.029,104.0,104.0,103.0,13.3,1505.2,325.5,-0.8,1.8,2471.329,13.29,0.044,3.9
2023-03-13T07:49:03,42.805,6.029,-0.007,0.042,0.008,104.0,105.0,103.0,13.4,1505.2,325.5,-0.8,1.8,2471.347,13.29,0.042,350.5
2023-03-13T07:52:03,42.805,6.029,0.012,0.042,0.014,103.0,106.0,103.0,13.4,1505.2,334.8,-0.8,1.8,2471.356,13.29,0.043,15.9
2023-03-13T07:55:03,42.805,6.029,-0.007,0.054,0.012,104.0,105.0,102.0,13.4,1505.2,317.9,-0.8,1.8,2471.327,13.29,0.054,352.6
2023-03-13T07:58:03,42.805,6.029,0.0,0.045,-0.029,104.0,105.0,103.0,13.3,1505.2,324.1,-0.7,1.8,2471.372,13.29,0.045,0.0
2023-03-13T08:04:03,42.805,6.029,-0.014,0.029,-0.016,104.0,105.0,103.0,13.3,1505.2,329.2,-0.8,1.8,2471.435,13.28,0.032,334.2
2023-03-13T08:07:03,42.805,6.029,0.004,0.04,-0.002,104.0,105.0,103.0,13.4,1505.2,329.7,-0.8,1.8,2471.405,13.28,0.04,5.7
2023-03-13T08:10:03,42.805,6.029,0.004,0.029,-0.006,106.0,105.0,102.0,13.3,1505.2,338.0,-0.7,1.8,2471.419,13.29,0.029,7.8
2023-03-13T08:13:03,42.805,6.029,-0.015,0.036,-0.016,105.0,106.0,104.0,13.4,1505.2,316.8,-0.8,1.8,2471.412,13.29,0.039,337.4
2023-03-13T08:16:03,42.805,6.029,-0.008,0.032,-0.035,105.0,107.0,101.0,13.4,1505.2,326.0,-0.8,1.8,2471.401,13.29,0.032,346.0
2023-03-13T08:19:03,42.805,6.029,-0.011,0.042,-0.009,104.0,104.0,103.0,13.4,1505.2,322.2,-0.8,1.8,2471.383,13.29,0.043,345.3
2023-03-13T08:22:03,42.805,6.029,0.006,0.035,-0.002,105.0,104.0,104.0,13.4,1505.2,324.4,-0.8,1.8,2471.38,13.29,0.035,9.7
2023-03-13T08:25:03,42.805,6.029,0.002,0.052,-0.004,105.0,105.0,103.0,13.3,1505.2,325.2,-0.8,1.8,2471.394,13.29,0.052,2.2
2023-03-13T08:28:03,42.805,6.029,-0.011,0.041,-0.019,104.0,105.0,104.0,13.4,1505.2,333.8,-0.8,1.9,2471.369,13.29,0.042,345.0
2023-03-13T08:31:03,42.805,6.029,-0.013,0.053,0.007,105.0,106.0,103.0,13.4,1505.2,328.5,-0.8,1.8,2471.382,13.29,0.054,346.2
2023-03-13T08:34:03,42.805,6.029,0.003,0.047,-0.021,105.0,105.0,103.0,13.4,1505.2,331.6,-0.8,1.8,2471.402,13.29,0.047,3.6
2023-03-13T08:37:03,42.805,6.029,-0.005,0.028,-0.01,106.0,104.0,103.0,13.3,1505.2,326.5,-0.7,1.8,2471.385,13.29,0.028,349.9
2023-03-13T08:40:03,42.805,6.029,0.013,0.028,0.015,105.0,105.0,103.0,13.3,1505.2,341.8,-0.8,1.9,2471.399,13.29,0.03,24.9
2023-03-13T08:43:03,42.805,6.029,0.004,0.049,0.022,105.0,106.0,104.0,13.3,1505.2,332.0,-0.8,1.8,2471.405,13.29,0.049,4.7
2023-03-13T08:46:03,42.805,6.029,0.001,0.06,0.024,105.0,106.0,102.0,13.4,1505.2,331.7,-0.7,1.8,2471.391,13.29,0.06,1.0
2023-03-13T08:49:03,42.805,6.029,-0.028,0.029,-0.023,104.0,106.0,104.0,13.4,1505.2,322.9,-0.7,1.8,2471.376,13.29,0.04,316.0
2023-03-13T08:52:03,42.805,6.029,-0.004,0.028,0.001,105.0,105.0,104.0,13.4,1505.2,340.0,-0.8,1.8,2471.372,13.29,0.028,351.9
2023-03-13T08:55:03,42.805,6.029,-0.024,0.05,-0.014,104.0,104.0,104.0,13.4,1505.2,318.4,-0.8,1.8,2471.416,13.29,0.055,334.4
2023-03-13T08:58:03,42.805,6.029,0.018,0.037,0.016,105.0,105.0,103.0,13.4,1505.2,332.1,-0.8,1.8,2471.399,13.29,0.041,25.9
2023-03-13T09:04:03,42.805,6.029,0.014,0.038,-0.034,104.0,106.0,103.0,13.4,1505.2,335.7,-0.7,1.8,2471.459,13.28,0.04,20.2
2023-03-13T09:07:03,42.805,6.029,-0.006,0.037,0.0,105.0,108.0,103.0,13.4,1505.2,323.8,-0.8,1.8,2471.436,13.29,0.037,350.8
2023-03-13T09:10:03,42.805,6.029,-0.025,0.039,0.002,104.0,107.0,103.0,13.4,1505.2,336.2,-0.8,1.8,2471.477,13.29,0.046,327.3
2023-03-13T09:13:03,42.805,6.029,-0.03,0.045,-0.009,104.0,106.0,103.0,13.3,1505.2,316.1,-0.8,1.8,2471.406,13.29,0.054,326.3
2023-03-13T09:16:03,42.805,6.029,0.016,0.029,0.007,104.0,106.0,103.0,13.4,1505.2,333.8,-0.8,1.8,2471.423,13.29,0.033,28.9
2023-03-13T09:19:03,42.805,6.029,-0.014,0.031,0.001,106.0,107.0,103.0,13.3,1505.2,319.4,-0.7,1.8,2471.428,13.29,0.034,335.7
2023-03-13T09:22:03,42.805,6.029,-0.003,0.033,-0.002,107.0,106.0,104.0,13.4,1505.2,326.0,-0.8,1.8,2471.43,13.29,0.033,354.8
2023-03-13T09:25:03,42.805,6.029,0.015,0.015,0.004,105.0,105.0,103.0,13.4,1505.2,322.7,-0.8,1.8,2471.439,13.29,0.021,45.0
2023-03-13T09:28:03,42.805,6.029,0.013,0.027,0.011,104.0,105.0,104.0,13.4,1505.2,339.1,-0.8,1.9,2471.419,13.29,0.029,25.7
2023-03-13T09:31:03,42.805,6.029,0.014,0.027,-0.016,106.0,106.0,102.0,13.4,1505.2,326.0,-0.8,1.8,2471.413,13.29,0.03,27.4
2023-03-13T09:34:03,42.805,6.029,-0.013,0.035,-0.016,105.0,106.0,102.0,13.4,1505.2,318.6,-0.8,1.8,2471.413,13.29,0.037,339.6
2023-03-13T09:37:03,42.805,6.029,-0.016,0.059,-0.013,105.0,104.0,103.0,13.4,1505.2,327.4,-0.8,1.8,2471.419,13.29,0.061,344.8
2023-03-13T09:40:03,42.805,6.029,-0.002,0.041,-0.013,106.0,105.0,104.0,13.4,1505.2,324.3,-0.8,1.8,2471.426,13.29,0.041,357.2
2023-03-13T09:43:03,42.805,6.029,-0.022,0.036,0.011,104.0,106.0,103.0,13.3,1505.2,316.1,-0.7,1.8,2471.403,13.29,0.042,328.6
2023-03-13T09:46:03,42.805,6.029,-0.017,0.035,0.021,103.0,105.0,103.0,13.4,1505.2,316.7,-0.7,1.8,2471.401,13.29,0.038,334.1
2023-03-13T09:49:03,42.805,6.029,0.009,0.04,0.015,105.0,106.0,105.0,13.3,1505.2,332.5,-0.8,1.8,2471.419,13.29,0.041,12.7
2023-03-13T09:52:03,42.805,6.029,-0.021,0.047,-0.006,103.0,105.0,103.0,13.3,1505.2,328.5,-0.8,1.8,2471.409,13.29,0.051,335.9
2023-03-13T09:55:03,42.805,6.029,-0.012,0.038,-0.009,105.0,105.0,102.0,13.4,1505.2,326.8,-0.8,1.8,2471.468,13.29,0.039,342.5